Location: Dürabuch
(48.2640°N, 11.2185°E)
Time: 03:30:04
(UTC+00:00)

H-2A R/B - Pass Details

Date: 23 May 2024
Orbit: 553 x 571 km, 98.1° (Epoch: 19 June)

Event Time Altitude Azimuth Distance (km) Brightness Sun altitude
Rises 00:36:46 0° 20° (NNE) 2,757 8.6 -18.5°
Reaches altitude 10° 00:39:02 10° 28° (NNE) 1,853 7.3 -18.4°
Maximum altitude 00:42:48 39° 98° (E) 846 4.3 -18.2°
Enters shadow 00:44:30 26° 149° (SSE) 1,126 4.6 -18.0°
